DW2598 Weather Reports


Display with metric or nautical units.
time (UTC)temp
F
wind
direction
speed
MPH
gust
MPH
rain 1hr
in
rain 24hr
in
rain mn
in
humidity
%
barometer
mb
20260503211520 66 260 1.0 7.0 0.00 0.00 0.00 41 1017.4
20260503211007 65 228 3.0 6.0 0.00 0.00 0.00 41 1017.5
20260503210507 65 327 2.0 6.0 0.00 0.00 0.00 42 1017.5
20260503210023 65 335 1.0 6.0 0.00 0.00 0.00 39 1017.6
20260503205507 65 207 2.0 7.0 0.00 0.00 0.00 41 1017.8
20260503205008 65 28 2.0 7.0 0.00 0.00 0.00 38 1017.8
20260503204528 65 236 2.0 7.0 0.00 0.00 0.00 40 1017.8
20260503204008 65 182 1.0 7.0 0.00 0.00 0.00 40 1017.9
20260503203510 65 28 2.0 6.0 0.00 0.00 0.00 45 1018.0
20260503203032 64 200 2.0 8.0 0.00 0.00 0.00 42 1018.0
20260503202509 64 215 3.0 8.0 0.00 0.00 0.00 43 1018.1
20260503202012 64 232 2.0 6.0 0.00 0.00 0.00 42 1018.2
20260503201528 63 102 1.0 8.0 0.00 0.00 0.00 40 1018.5
20260503201006 64 26 2.0 8.0 0.00 0.00 0.00 43 1018.6
20260503200511 64 234 3.0 8.0 0.00 0.00 0.00 43 1018.7
20260503200024 64 249 1.0 6.0 0.00 0.00 0.00 39 1018.7
20260503195507 64 260 2.0 6.0 0.00 0.00 0.00 48 1018.7
20260503195010 64 181 1.0 5.0 0.00 0.00 0.00 43 1018.7
20260503194527 63 92 2.0 7.0 0.00 0.00 0.00 39 1018.8
20260503194003 63 214 2.0 7.0 0.00 0.00 0.00 42 1018.9
20260503193507 63 275 3.0 7.0 0.00 0.00 0.00 43 1018.9
20260503193007 62 148 1.0 7.0 0.00 0.00 0.00 41 1019.0
20260503192506 63 216 4.0 7.0 0.00 0.00 0.00 43 1019.1
20260503192004 62 208 1.0 7.0 0.00 0.00 0.00 41 1019.2
20260503191513 63 251 3.0 7.0 0.00 0.00 0.00 49 1019.3
20260503191006 63 232 2.0 6.0 0.00 0.00 0.00 44 1019.3
20260503190509 62 268 2.0 7.0 0.00 0.00 0.00 48 1019.4
20260503190018 62 176 2.0 7.0 0.00 0.00 0.00 44 1019.4
20260503185506 62 128 1.0 6.0 0.00 0.00 0.00 42 1019.5
20260503185013 63 227 2.0 7.0 0.00 0.00 0.00 45 1019.6
20260503184524 62 250 2.0 7.0 0.00 0.00 0.00 45 1019.5
20260503184002 62 312 1.0 6.0 0.00 0.00 0.00 43 1019.7
20260503183504 63 9 2.0 6.0 0.00 0.00 0.00 45 1019.7
20260503183007 62 246 2.0 5.0 0.00 0.00 0.00 46 1019.7
20260503182503 62 322 1.0 5.0 0.00 0.00 0.00 40 1019.8
20260503182004 61 243 2.0 7.0 0.00 0.00 0.00 44 1020.0
20260503181512 61 339 3.0 7.0 0.00 0.00 0.00 42 1020.1
20260503181007 62 247 2.0 7.0 0.00 0.00 0.00 43 1020.1
20260503180504 62 166 2.0 7.0 0.00 0.00 0.00 44 1020.1
20260503180016 60 17 2.0 7.0 0.00 0.00 0.00 46 1020.2
20260503175507 60 168 3.0 8.0 0.00 0.00 0.00 46 1020.3
20260503175007 61 179 3.0 8.0 0.00 0.00 0.00 41 1020.4
20260503174530 60 270 1.0 7.0 0.00 0.00 0.00 45 1020.4
20260503174007 60 249 3.0 6.0 0.00 0.00 0.00 48 1020.5
20260503173032 61 160 2.0 7.0 0.00 0.00 0.00 43 1020.6
20260503172514 59 353 1.0 7.0 0.00 0.00 0.00 44 1020.7
20260503172004 59 54 2.0 7.0 0.00 0.00 0.00 43 1020.7
20260503171510 60 256 3.0 6.0 0.00 0.00 0.00 48 1020.9
20260503171003 60 265 1.0 5.0 0.00 0.00 0.00 47 1021.0
20260503170503 60 201 3.0 8.0 0.00 0.00 0.00 48 1021.0
20260503151011 59 124 0.0 4.0 0.00 0.00 0.00 47 1021.9
20260503150508 59 212 1.0 4.0 0.00 0.00 0.00 46 1022.0
20260503131008 53 16 1.0 4.0 0.00 0.00 0.00 64 1021.8
20260503130507 52 264 0.0 3.0 0.00 0.00 0.00 67 1021.8
20260503110510 37 263 0.0 0.0 0.00 0.00 0.00 85 1020.5
20260503090507 41 21 0.0 0.0 0.00 0.00 0.00 81 1019.8
20260503081506 43 21 0.0 0.0 0.00 0.00 0.00 76 1019.3
20260503072509 46 21 0.0 0.0 0.00 0.00 0.00 69 1018.6
20260503072012 46 21 0.0 0.0 0.00 0.00 0.00 69 1018.5
20260503071506 47 21 0.0 0.0 0.00 0.00 0.00 68 1018.5
20260503054522 50 26 0.0 2.0 0.00 0.00 0.00 65 1018.4
20260503054006 50 24 0.0 1.0 0.00 0.00 0.00 65 1018.3
20260503052008 50 49 0.0 2.0 0.00 0.00 0.00 65 1018.2
20260503051008 50 22 0.0 3.0 0.00 0.00 0.00 64 1018.1
20260503050509 51 15 0.0 3.0 0.00 0.00 0.00 64 1018.1
20260503050024 51 19 0.0 1.0 0.00 0.00 0.00 64 1018.1
20260503045509 51 19 0.0 1.0 0.00 0.00 0.00 63 1018.1
20260503045011 51 19 0.0 0.0 0.00 0.00 0.00 62 1018.1
20260503044542 51 19 0.0 0.0 0.00 0.00 0.00 62 1018.2
20260503044005 51 19 0.0 1.0 0.00 0.00 0.00 61 1018.1
20260503043035 52 19 0.0 2.0 0.00 0.00 0.00 61 1018.1
20260503041010 52 65 0.0 3.0 0.00 0.00 0.00 60 1017.8
20260503035508 53 11 0.0 6.0 0.00 0.00 0.00 59 1017.8
20260503035007 53 4 0.0 6.0 0.00 0.00 0.00 59 1017.8
20260503034526 53 19 2.0 6.0 0.00 0.00 0.00 59 1017.8
20260503034008 53 24 2.0 5.0 0.00 0.00 0.00 59 1017.8
20260503033512 53 336 1.0 5.0 0.00 0.00 0.00 59 1017.8
20260503033027 53 21 2.0 5.0 0.00 0.00 0.00 58 1017.8
20260503024014 54 12 3.0 9.0 0.00 0.00 0.00 57 1017.3
20260503023508 54 315 1.0 4.0 0.00 0.00 0.00 57 1017.3
20260503023025 54 24 1.0 4.0 0.00 0.00 0.00 56 1017.3
20260503022510 54 28 1.0 7.0 0.00 0.00 0.00 56 1017.2
20260503022015 54 329 2.0 7.0 0.00 0.00 0.00 56 1017.3
20260503021528 54 40 2.0 5.0 0.00 0.00 0.00 56 1017.2
20260503021010 54 360 0.0 6.0 0.00 0.00 0.00 56 1017.2
20260503020511 54 21 1.0 6.0 0.00 0.00 0.00 56 1017.1
20260503020002 54 19 1.0 6.0 0.00 0.00 0.00 56 1017.0
20260503015504 54 34 1.0 6.0 0.00 0.00 0.00 56 1017.1
20260503015003 54 297 2.0 5.0 0.00 0.00 0.00 56 1016.9
20260503014505 54 20 1.0 5.0 0.00 0.00 0.00 55 1016.8
20260503014003 54 31 2.0 6.0 0.00 0.00 0.00 55 1016.7
20260503013503 54 21 1.0 6.0 0.00 0.00 0.00 55 1016.7
20260503013003 54 352 1.0 4.0 0.00 0.00 0.00 55 1016.6
20260503012504 54 62 1.0 4.0 0.00 0.00 0.00 55 1016.6
20260503012004 54 19 0.0 3.0 0.00 0.00 0.00 54 1016.6
20260503011503 54 32 1.0 4.0 0.00 0.00 0.00 54 1016.4
20260503011004 54 327 0.0 4.0 0.00 0.00 0.00 53 1016.4
20260503010502 55 38 0.0 3.0 0.00 0.00 0.00 53 1016.4
20260503010002 55 20 0.0 3.0 0.00 0.00 0.00 52 1016.2
20260503005503 55 21 0.0 3.0 0.00 0.00 0.00 52 1016.0
20260503005004 55 26 1.0 3.0 0.00 0.00 0.00 51 1016.0
20260503004504 56 5 0.0 3.0 0.00 0.00 0.00 51 1016.0
20260503004007 56 28 1.0 3.0 0.00 0.00 0.00 50 1015.9
20260503003503 56 20 1.0 4.0 0.00 0.00 0.00 50 1015.8
20260503003007 56 22 2.0 4.0 0.00 0.00 0.00 49 1015.7
20260503002505 57 21 1.0 4.0 0.00 0.00 0.00 48 1015.6
20260503002003 57 39 1.0 4.0 0.00 0.00 0.00 48 1015.6
20260503001503 57 21 1.0 6.0 0.00 0.00 0.00 47 1015.5
20260503001004 57 24 0.0 6.0 0.00 0.00 0.00 46 1015.4
20260503000507 58 21 2.0 6.0 0.00 0.00 0.00 46 1015.3
20260503000006 58 56 1.0 6.0 0.00 0.00 0.00 45 1015.3
20260502235504 58 22 1.0 6.0 0.00 0.00 0.00 45 1015.2
20260502235004 58 65 2.0 6.0 0.00 0.00 0.00 45 1015.2
20260502234504 59 7 1.0 7.0 0.00 0.00 0.00 44 1015.1
20260502234004 59 7 2.0 8.0 0.00 0.00 0.00 44 1015.1
20260502233503 59 36 2.0 8.0 0.00 0.00 0.00 44 1015.1
20260502233006 59 19 1.0 7.0 0.00 0.00 0.00 43 1015.1
20260502232503 60 19 1.0 7.0 0.00 0.00 0.00 43 1015.0
20260502231507 60 121 2.0 7.0 0.00 0.00 0.00 44 1015.1
20260502231004 61 327 2.0 7.0 0.00 0.00 0.00 43 1015.0
20260502230504 61 24 2.0 7.0 0.00 0.00 0.00 43 1015.0
20260502230010 61 335 3.0 7.0 0.00 0.00 0.00 42 1015.0
20260502225504 61 31 3.0 5.0 0.00 0.00 0.00 42 1014.9
20260502225008 61 332 2.0 7.0 0.00 0.00 0.00 40 1015.0
20260502224507 61 3 2.0 7.0 0.00 0.00 0.00 42 1015.0
20260502224008 61 47 0.0 7.0 0.00 0.00 0.00 40 1015.0
20260502223503 61 337 3.0 7.0 0.00 0.00 0.00 40 1015.0
20260502221503 61 350 2.0 5.0 0.00 0.00 0.00 40 1014.7
20260502221004 62 324 1.0 9.0 0.00 0.00 0.00 39 1014.7
20260502220505 62 45 1.0 9.0 0.00 0.00 0.00 39 1014.7
20260502220010 63 19 3.0 7.0 0.00 0.00 0.00 39 1014.7
20260502215504 63 1 3.0 7.0 0.00 0.00 0.00 39 1014.5
20260502215006 63 50 3.0 6.0 0.00 0.00 0.00 38 1014.5
20260502214509 63 353 3.0 6.0 0.00 0.00 0.00 39 1014.6
20260502214005 62 12 1.0 3.0 0.00 0.00 0.00 41 1014.5
20260502213504 62 306 1.0 6.0 0.00 0.00 0.00 39 1014.6
20260502213008 61 10 1.0 6.0 0.00 0.00 0.00 42 1014.6
20260502212505 61 357 1.0 6.0 0.00 0.00 0.00 40 1014.6
20260502212005 62 16 3.0 6.0 0.00 0.00 0.00 38 1014.5